User: anonymous   Login
Location: Newark
(43.0000°N, 1.6781°W)
Time: 17:23:39
(UTC+00:00)
Language:

DX 1 - Orbit

View from above orbital plane
View from above orbital plane
View from above satellite
View from above satellite

Ground track
Ground track

The orbit data is extracted from the following two-line orbital elements,

1 40071U 14037C   22334.15961195  .00000795  00000-0  10706-3 0  9996
2 40071  98.3830 210.9285 0008962 138.0873 222.1035 14.82160534453884
Epoch (UTC): 30 November 2022 03:49:50
Eccentricity: 0.0008962
inclination: 98.3830°
perigee height: 616 km
apogee height: 629 km
right ascension of ascending node: 210.9285°
argument of perigee: 138.0873°
revolutions per day: 14.82160534
mean anomaly at epoch: 222.1035°
orbit number at epoch: 45388

The dashed part of the orbit path shows where the satellite is in the earth's shadow,  

DLR